Hourly Weather Kisteni

Today, 29 July, Thursday

Time Temperature Precipitation Wind Pressure Humidity
00:00 +21°C° 0 mm 1 mps 745 mmHg 73%
01:00 +21°C° 0 mm 1 mps 745 mmHg 74%
02:00 +21°C° 0 mm 1 mps 744 mmHg 76%
03:00 +21°C° 0 mm 1 mps 744 mmHg 76%
04:00 +21°C° 0 mm 1 mps 744 mmHg 77%
05:00 +21°C° 0 mm 1 mps 744 mmHg 78%
06:00 +23°C° 0 mm 1 mps 744 mmHg 71%
07:00 +25°C° 0 mm 1 mps 744 mmHg 64%
08:00 +27°C° 0 mm 1 mps 744 mmHg 57%
09:00 +28°C° 0 mm 2 mps 743 mmHg 53%
10:00 +29°C° 0 mm 2 mps 743 mmHg 48%
11:00 +31°C° 0 mm 2 mps 743 mmHg 43%
12:00 +31°C° 0 mm 3 mps 743 mmHg 41%
13:00 +33°C° 0 mm 3 mps 742 mmHg 39%
14:00 +33°C° 0 mm 3 mps 742 mmHg 37%
15:00 +30°C° 0.3 mm 4 mps 742 mmHg 49%
16:00 +28°C° 0.3 mm 4 mps 741 mmHg 60%
17:00 +26°C° 0.3 mm 5 mps 741 mmHg 71%
18:00 +24°C° 3.9 mm 3 mps 741 mmHg 79%
19:00 +23°C° 3.9 mm 2 mps 742 mmHg 88%
20:00 +21°C° 3.9 mm 1 mps 742 mmHg 96%
21:00 +21°C° 0 mm 1 mps 742 mmHg 96%
22:00 +20°C° 0 mm 1 mps 742 mmHg 96%
23:00 +19°C° 0 mm 2 mps 742 mmHg 96%

Tomorrow, 30 July, Friday

Time Temperature Precipitation Wind Pressure Humidity
00:00 +19°C° 0 mm 2 mps 743 mmHg 96%
01:00 +18°C° 0 mm 2 mps 743 mmHg 97%
02:00 +18°C° 0 mm 3 mps 743 mmHg 97%
03:00 +18°C° 0 mm 3 mps 743 mmHg 96%
04:00 +18°C° 0 mm 2 mps 743 mmHg 96%
05:00 +18°C° 0 mm 2 mps 743 mmHg 96%
06:00 +19°C° 0 mm 3 mps 743 mmHg 89%
07:00 +20°C° 0 mm 3 mps 744 mmHg 82%
08:00 +22°C° 0 mm 3 mps 744 mmHg 75%
09:00 +24°C° 0 mm 3 mps 744 mmHg 66%
10:00 +26°C° 0 mm 4 mps 744 mmHg 56%
11:00 +27°C° 0 mm 4 mps 744 mmHg 47%
12:00 +28°C° 0 mm 4 mps 743 mmHg 46%
13:00 +28°C° 0 mm 4 mps 743 mmHg 44%
14:00 +28°C° 0 mm 4 mps 743 mmHg 43%
15:00 +28°C° 0 mm 4 mps 743 mmHg 44%
16:00 +28°C° 0 mm 4 mps 743 mmHg 45%
17:00 +27°C° 0 mm 4 mps 743 mmHg 46%
18:00 +26°C° 0 mm 3 mps 743 mmHg 52%
19:00 +24°C° 0 mm 3 mps 743 mmHg 57%
20:00 +21°C° 0 mm 2 mps 743 mmHg 62%
21:00 +20°C° 0 mm 2 mps 743 mmHg 63%
22:00 +20°C° 0 mm 2 mps 743 mmHg 64%
23:00 +19°C° 0 mm 2 mps 743 mmHg 65%

Day after tomorrow, 31 July, Saturday

Time Temperature Precipitation Wind Pressure Humidity
00:00 +19°C° 0 mm 2 mps 743 mmHg 68%
01:00 +18°C° 0 mm 2 mps 743 mmHg 70%
02:00 +18°C° 0 mm 3 mps 743 mmHg 73%
03:00 +17°C° 0 mm 3 mps 743 mmHg 75%
04:00 +17°C° 0 mm 3 mps 743 mmHg 77%
05:00 +17°C° 0 mm 2 mps 743 mmHg 80%
06:00 +19°C° 0 mm 3 mps 743 mmHg 73%
07:00 +21°C° 0 mm 3 mps 743 mmHg 66%
08:00 +24°C° 0 mm 3 mps 743 mmHg 59%
09:00 +25°C° 0 mm 4 mps 743 mmHg 53%
10:00 +27°C° 0 mm 5 mps 743 mmHg 47%
11:00 +28°C° 0 mm 5 mps 743 mmHg 41%
12:00 +29°C° 0 mm 5 mps 743 mmHg 39%
13:00 +29°C° 0 mm 5 mps 743 mmHg 38%
14:00 +30°C° 0 mm 5 mps 743 mmHg 36%
15:00 +30°C° 0 mm 5 mps 743 mmHg 38%
16:00 +30°C° 0 mm 4 mps 743 mmHg 39%
17:00 +30°C° 0 mm 3 mps 743 mmHg 40%
18:00 +28°C° 0 mm 2 mps 743 mmHg 46%
19:00 +26°C° 0 mm 2 mps 743 mmHg 51%
20:00 +24°C° 0 mm 1 mps 743 mmHg 56%
21:00 +23°C° 0 mm 1 mps 743 mmHg 58%
22:00 +23°C° 0 mm 2 mps 743 mmHg 60%
23:00 +21°C° 0 mm 3 mps 743 mmHg 62%

1 August, Sunday

Time Temperature Precipitation Wind Pressure Humidity
00:00 +20°C° 0.7 mm 3 mps 742 mmHg 72%
01:00 +20°C° 0.7 mm 3 mps 742 mmHg 81%
02:00 +19°C° 0.7 mm 3 mps 742 mmHg 91%
03:00 +19°C° 0.3 mm 3 mps 742 mmHg 91%
04:00 +19°C° 0.3 mm 4 mps 741 mmHg 92%
05:00 +19°C° 0.3 mm 4 mps 741 mmHg 93%
06:00 +20°C° 0.4 mm 4 mps 741 mmHg 90%
07:00 +21°C° 0.4 mm 4 mps 742 mmHg 88%
08:00 +22°C° 0.4 mm 5 mps 742 mmHg 86%
09:00 +23°C° 0 mm 5 mps 742 mmHg 77%
10:00 +25°C° 0 mm 4 mps 742 mmHg 69%
11:00 +27°C° 0 mm 4 mps 743 mmHg 60%
12:00 +28°C° 0 mm 4 mps 743 mmHg 55%
13:00 +29°C° 0 mm 4 mps 743 mmHg 50%
14:00 +30°C° 0 mm 4 mps 743 mmHg 45%
15:00 +30°C° 0 mm 4 mps 743 mmHg 45%
16:00 +30°C° 0 mm 3 mps 743 mmHg 45%
17:00 +30°C° 0 mm 3 mps 743 mmHg 45%
18:00 +28°C° 0 mm 3 mps 743 mmHg 50%
19:00 +26°C° 0 mm 2 mps 743 mmHg 56%
20:00 +24°C° 0 mm 1 mps 743 mmHg 61%
21:00 +23°C° 0 mm 1 mps 743 mmHg 62%
22:00 +22°C° 0 mm 1 mps 743 mmHg 64%
23:00 +21°C° 0 mm 1 mps 743 mmHg 66%

2 August, Monday

Time Temperature Precipitation Wind Pressure Humidity
00:00 +21°C° 0 mm 1 mps 743 mmHg 68%
01:00 +19°C° 0 mm 2 mps 742 mmHg 69%
02:00 +19°C° 0 mm 2 mps 742 mmHg 71%
03:00 +19°C° 0.2 mm 2 mps 742 mmHg 77%
04:00 +19°C° 0.2 mm 3 mps 741 mmHg 83%
05:00 +18°C° 0.2 mm 3 mps 741 mmHg 89%
06:00 +20°C° 0 mm 3 mps 741 mmHg 86%
07:00 +21°C° 0 mm 4 mps 741 mmHg 83%
08:00 +22°C° 0 mm 5 mps 741 mmHg 80%
09:00 +25°C° 0 mm 5 mps 740 mmHg 72%
10:00 +26°C° 0 mm 5 mps 740 mmHg 65%
11:00 +28°C° 0 mm 5 mps 740 mmHg 58%
12:00 +27°C° 0.1 mm 5 mps 740 mmHg 59%
13:00 +27°C° 0.1 mm 5 mps 740 mmHg 61%
14:00 +27°C° 0.1 mm 5 mps 740 mmHg 63%
15:00 +26°C° 0.3 mm 5 mps 740 mmHg 68%
16:00 +23°C° 0.3 mm 5 mps 740 mmHg 73%
17:00 +22°C° 0.3 mm 5 mps 740 mmHg 78%
18:00 +20°C° 0.4 mm 5 mps 741 mmHg 82%
19:00 +17°C° 0.4 mm 5 mps 741 mmHg 87%
20:00 +15°C° 0.4 mm 5 mps 742 mmHg 91%
21:00 +15°C° 0 mm 5 mps 743 mmHg 93%
22:00 +14°C° 0 mm 4 mps 743 mmHg 94%
23:00 +13°C° 0 mm 3 mps 744 mmHg 96%

3 August, Tuesday

Time Temperature Precipitation Wind Pressure Humidity
00:00 +13°C° 0 mm 3 mps 744 mmHg 96%
01:00 +13°C° 0 mm 3 mps 744 mmHg 96%
02:00 +13°C° 0 mm 4 mps 744 mmHg 96%
03:00 +13°C° 0 mm 4 mps 745 mmHg 96%
04:00 +12°C° 0 mm 4 mps 745 mmHg 95%
05:00 +12°C° 0 mm 4 mps 745 mmHg 95%
06:00 +14°C° 0 mm 4 mps 746 mmHg 87%
07:00 +15°C° 0 mm 5 mps 746 mmHg 79%
08:00 +17°C° 0 mm 5 mps 747 mmHg 72%
09:00 +19°C° 0 mm 5 mps 747 mmHg 62%
10:00 +21°C° 0 mm 5 mps 747 mmHg 53%
11:00 +23°C° 0 mm 5 mps 747 mmHg 44%
12:00 +23°C° 0 mm 5 mps 747 mmHg 42%
13:00 +25°C° 0 mm 5 mps 747 mmHg 39%
14:00 +26°C° 0 mm 5 mps 747 mmHg 37%
15:00 +25°C° 0 mm 5 mps 747 mmHg 41%
16:00 +25°C° 0 mm 4 mps 747 mmHg 46%
17:00 +24°C° 0 mm 3 mps 748 mmHg 50%
18:00 +22°C° 0.1 mm 3 mps 748 mmHg 56%
19:00 +20°C° 0.1 mm 3 mps 748 mmHg 63%
20:00 +19°C° 0.1 mm 3 mps 748 mmHg 69%
21:00 +18°C° 0.5 mm 3 mps 748 mmHg 77%
22:00 +17°C° 0.5 mm 3 mps 748 mmHg 85%
23:00 +16°C° 0.5 mm 3 mps 749 mmHg 93%
Show more